California State Race - INVENTORY

Station: Inventory - T Race

Distance: 1 Miles    

Release: 16-May-2019 06:00

Weather Release:    Arrival:

Wind at Release:     Wind at Arrival:

Temp at Release: °    Temp at Arrival: °

Lofts: 85

Birds: 227

Clocked: 226

Good Luck to Everyone!
Drops Pos Breeder Pigeon Name Color Sex Ent Arrival Speed To Win Eligible
1 John Partridge - CA 1648-AU19-PASO BC H 1 12:29:19.50 4.521 00:00:00 Yes
1 Lopez / Saenz - CA 9092-AU19-CGR BB C 1 12:29:19.50 4.521 00:00:00 Yes
1 John Hedderson - CA 7623-AU19-FSC BB H 1 12:29:19.50 4.521 00:00:00 Yes
1 Brady Harper - CA 22534-AU19-ARPU BB H 1 12:29:19.90 4.521 00:00:00 Yes
5 Wessel Family Lofts - CA 3029-AU19-ARC BB H 1 12:29:22.40 4.520 00:00:05 Yes
5 Hayloft - CA 9294-AU19-GSF DC C 1 12:29:23.00 4.520 00:00:05 Yes
5 Armando Lopez - CA 1246-AU19-CHP BC C 1 12:29:24.60 4.520 00:00:05 Yes
8 Humberto Saenz - CA 9054-AU19-CGR BCSP H 1 12:29:27.50 4.519 00:00:10 Yes
8 Jim Vander Heide - CA 0004-AU19-OCF BC H 1 12:29:30.30 4.519 00:00:10 Yes
10 Robert Lin - CA 19078-AU19-SVS DC H 1 12:29:42.20 4.516 00:00:26 Yes
10 Silicon Valley Syndicates - CA 19065-AU19-SVS BBWF C 1 12:29:43.20 4.516 00:00:26 Yes
10 Barbara Coston - CA 1836-AU19-ARPU BB C 1 12:29:43.60 4.516 00:00:26 Yes
13 Dan Severns - CA 80741-AU19-MAN BC H 1 12:29:46.80 4.515 00:00:31 Yes
14 Dan Mello - CA 80270-AU19-MAN BC H 1 12:29:55.30 4.514 00:00:36 Yes
15 Silicon Valley Syndicates - CA 19079-AU19-SVS BBWF H 2 12:30:04.30 4.512 00:00:47 Yes
16 Hung-Wen Hung - CA 19080-AU19-SVS BB H 1 12:30:50.70 4.503 00:01:33 Yes
16 Al Shulman - CA 2563-AU19-WSJ SLPD C 1 12:30:53.50 4.503 00:01:33 Yes
18 Padilla - CA 1682-AU19-MTZ BB H 1 12:30:54.30 4.502 00:01:39 Yes
19 Gary Robins - CA 0115-AU19-OCF BC C 1 12:31:13.10 4.499 00:01:54 Yes
20 Al Shulman - CA 2551-AU19-WSJ RC C 2 12:31:16.10 4.498 00:01:59 Yes
20 Wessel Family Lofts - CA 3027-AU19-ARC BB H 2 12:31:18.00 4.498 00:01:59 Yes
20 Andrew Broster - CA 3740-AU19-ARC BB H 1 12:31:19.20 4.498 00:01:59 Yes
23 Gold Star Loft - CA 1671-AU19-STON BB H 1 12:31:27.30 4.496 00:02:10 Yes
23 Carl Cardarelli - CA 0203-AU19-ANCO BC C 1 12:31:27.30 4.496 00:02:10 Yes
23 Hayloft - CA 9365-AU19-GSF BB H 2 12:31:28.40 4.496 00:02:10 Yes
26 Armando Lopez - CA 1300-AU19-CHP BCWF H 2 12:31:37.90 4.494 00:02:20 Yes
27 Hayloft - CA 9258-AU19-GSF BCPD H 3 12:31:48.60 4.492 00:02:31 Yes
28 John Hedderson - CA 7629-AU19-FSC BB C 2 12:31:55.30 4.491 00:02:36 Yes
29 Pat Siino - CA 9120-AU19-COOK BB H 1 12:32:04.20 4.489 00:02:47 Yes
30 Hung-Wen Hung - CA 19074-AU19-SVS BCWF C 2 12:32:10.60 4.488 00:02:52 Yes
31 De Vriend Lofts - CA 5739-AU19-FSC BC H 1 12:32:26.30 4.485 00:03:07 Yes
31 Jim Edgeworth - CA 2740-AU19-ARPU BB H 1 12:32:27.30 4.485 00:03:07 Yes
33 Hayloft - CA 9265-AU19-GSF BB C 4 12:32:30.30 4.484 00:03:13 Yes
34 Pat Siino - CA 9118-AU19-COOK LTCK H 2 12:32:42.90 4.482 00:03:23 Yes
35 Marshall Jespersen - CA 3207-AU19-ARC BB C 1 12:32:48.70 4.481 00:03:29 Yes
36 Jeff Decker - CA 1923-AU19-JTD BB 1 1 12:33:02.50 4.478 00:03:44 Yes
37 Prout's Loft - CA 12579-AU19-ARPU BB H 1 12:33:11.30 4.476 00:03:55 Yes
38 Hayloft - CA 9272-AU19-GSF BC C 5 12:33:36.40 4.471 00:04:21 Yes
38 John Partridge - CA 1642-AU19-PASO BB C 2 12:33:36.90 4.471 00:04:21 Yes
38 Jim Cain - CA 6516-AU19-FSC BB H 1 12:33:37.40 4.471 00:04:21 Yes
38 Jim Edgeworth - CA 2739-AU19-ARPU BB C 2 12:33:39.10 4.471 00:04:21 Yes
42 Mike Gonigan - CA 80309-AU19-MAN BB H 1 12:33:43.70 4.470 00:04:26 Yes
43 Steve Sterchi - CA 0947-AU19-SR BB H 1 12:33:51.40 4.469 00:04:32 Died
43 Gomez Loft - CA 1098-AU19-CHP BBTK H 1 12:33:51.50 4.469 00:04:32 Yes
45 Zack Jones - CA 1956-AU19-MTZ BC H 1 12:34:14.50 4.464 00:04:58 Yes
45 Hayloft - CA 9262-AU19-GSF RC C 6 12:34:15.10 4.464 00:04:58 Yes
47 Richard Norgrove - CA 90866-AU19-SOC BC H 1 12:34:25.70 4.462 00:05:09 Yes
47 Hayloft - CA 9339-AU19-GSF BC C 7 12:34:27.40 4.462 00:05:09 Yes
49 Laszlo Zugor - CA 5348-AU19-SRP RC H 1 12:34:29.90 4.461 00:05:14 Yes
49 Steve Paine - CA 0439-AU19-HOP BB 0 1 12:34:32.10 4.461 00:05:14 Yes
49 Zack Jones - CA 1972-AU19-MTZ BC C 2 12:34:32.50 4.461 00:05:14 Yes
49 Brady Harper - CA 22533-AU19-ARPU BB H 2 12:34:32.90 4.461 00:05:14 Yes
49 Gary Robins - CA 0005-AU19-OCF BC 0 2 12:34:33.50 4.461 00:05:14 Yes
54 Osty Loft - CA 6638-AU19-JEDD BCWF H 1 12:34:39.70 4.460 00:05:19 Yes
55 Steve Sterchi - CA 1919-AU19-SR BB H 2 12:34:50.50 4.457 00:05:35 Yes
56 Silicon Valley Syndicates - CA 19070-AU19-SVS BB H 3 12:34:57.20 4.456 00:05:41 Yes
57 Jim Herbaugh - CA 2999-AU19-ARPU BB H 1 12:35:01.90 4.455 00:05:46 Yes
58 Grover Todd - CA 5004-AU19-FSC BB C 1 12:35:11.50 4.454 00:05:51 Yes
59 Gomez Loft - CA 1092-AU19-CHP BCSP H 2 12:35:31.90 4.450 00:06:13 Yes
60 Jim Vander Heide - CA 0131-AU19-OCF BCTK H 2 12:35:37.50 4.449 00:06:18 Yes
61 Hayloft - CA 9337-AU19-GSF BC C 8 12:35:42.20 4.448 00:06:23 Yes
62 Barbara Shulman - CA 2555-AU19-WSJ BB C 1 12:36:00.70 4.444 00:06:45 Yes
62 C.J. Watkins - CA 1836-AU19-PASO BB C 1 12:36:04.40 4.444 00:06:45 Yes
64 Gomez Loft - CA 2426-AU19-CHP BB H 3 12:36:17.20 4.441 00:07:01 Yes
64 Robert Lin - CA 19084-AU19-SVS DCPD H 2 12:36:17.60 4.441 00:07:01 Yes
66 Skyruiz Loft - CA 5900-AU19-VITA BB C 1 12:36:46.20 4.436 00:07:28 Yes
67 Marco Parra - CA 1005-AU19-TULE BB 0 1 12:36:48.10 4.435 00:07:33 Yes
68 Stanton Woody - CA 80509-AU19-MAN BC H 1 12:37:12.00 4.431 00:07:54 Yes
68 Barbara Shulman - CA 2557-AU19-WSJ DC H 2 12:37:12.10 4.431 00:07:54 Yes
68 Steve Hendricks - CA 3801-AU19-ARC BB H 1 12:37:12.40 4.431 00:07:54 Yes
68 Armando De La O - CA 9125-AU19-COOK 9125 H 1 12:37:12.80 4.431 00:07:54 Yes
72 Lopez / Saenz - CA 0882-AU19-TCH BB H 2 12:38:17.50 4.419 00:08:59 Missing
73 Barbara Coston - CA 1848-AU19-ARPU BB H 2 12:38:30.10 4.417 00:09:10 Yes
74 Leonard Lee - CA 9329-AU19-BIEC DC C 1 12:38:33.90 4.416 00:09:15 Yes
75 Joe Jauhal - CA 0132-AU19-WSJ BC C 1 12:38:35.90 4.415 00:09:21 Yes
76 Hayloft - CA 9255-AU19-GSF BC H 9 12:38:49.40 4.413 00:09:32 Yes
77 Hayloft - CA 9351-AU19-GSF BC H 10 12:39:01.30 4.411 00:09:42 Yes
78 Bob Bostwick - CA 0921-AU19-COCO DC H 1 12:39:08.10 4.410 00:09:48 Died
79 Hayloft - CA 9379-AU19-GSF BB 0 11 12:39:17.20 4.408 00:09:59 Yes
80 Dan Mello - CA 80210-AU19-MAN GRZ C 2 12:39:26.90 4.406 00:10:10 Yes
80 Hayloft - CA 9347-AU19-GSF BB C 12 12:39:27.40 4.406 00:10:10 Yes
82 Steve Pereira - CA 2426-AU19-GSF BB C 1 12:39:51.10 4.402 00:10:31 Yes
83 Joyce Stierlin - CA 19255-AU19-A BB C 1 12:40:22.70 4.396 00:11:04 Yes
84 Dan Mello - CA 80274-AU19-MAN BC H 3 12:41:07.40 4.388 00:11:48 Yes
85 Hayloft - CA 9254-AU19-GSF BC C 13 12:41:17.30 4.386 00:11:59 Yes
86 Joe Jauhal - CA 0126-AU19-WSJ BCWF C 2 12:41:33.50 4.383 00:12:15 Yes
87 Armando De La O - CA 9117-AU19-COOK LTCK H 2 12:41:40.70 4.382 00:12:21 Yes
88 Hayloft - CA 9311-AU19-GSF BB C 14 12:41:43.20 4.381 00:12:26 Yes
89 Trina Dewitt - CA 1827-AU19-PASO DC C 1 12:42:10.40 4.376 00:12:54 Yes
89 Steve Paine - CA 0444-AU19-HOP BC 1 2 12:42:11.10 4.376 00:12:54 Yes
91 Mike Belus - CA 0718-AU19-BPRC BC 1 1 12:42:37.40 4.371 00:13:22 Yes
92 Dino D'ercole - CA 0507-AU19-SFR BB C 1 12:42:48.90 4.369 00:13:33 Yes
93 Jim Looper - CA 1039-AU19-LOOP BB C 1 12:42:54.90 4.368 00:13:38 Yes
94 Pat Siino - CA 9126-AU19-COOK BB H 3 12:46:52.30 4.326 00:17:33 Yes
95 Silicon Valley Syndicates - CA 19075-AU19-SVS BB C 4 12:47:14.40 4.322 00:17:55 Yes
96 Marshall Jespersen - CA 3205-AU19-ARC BB C 2 12:47:22.60 4.320 00:18:07 Yes
96 Partridge Family Loft - CA 1741-AU19-PASO BC H 1 12:47:23.40 4.320 00:18:07 Yes
98 Stanton Woody - CA 80510-AU19-MAN BB H 2 12:47:27.30 4.319 00:18:12 Yes
99 Leonard Lee - CA 9292-AU19-BIEC BB H 2 12:47:35.60 4.318 00:18:18 Yes
100 Steve Sterchi - CA 0990-AU19-SR BB H 3 12:48:27.30 4.309 00:19:09 Yes

There are 253 bird records

Note: These Race Results are unofficial and subject to change until verified by the Race Committee and declared final.